Globalstar M078

operational
NORAD ID: 39072 Int'l Des: 2013-005 Owner: GLOBL Country: US Constellation: globalstar
LEOCIRCULAR

关于 Globalstar M078

正在加载描述...

实时位置

正在加载3D地球...

即将过境

高度历史

Altitude vs Time

uPlot chart will show altitude changes over time

两行轨道根数

1 39072U 13005A 25298.85671738 -.00000080 00000-0 13307-3 0 9997
2 39072 52.0040 236.6588 0000504 77.2405 282.8518 12.62266750587311
Epoch: Oct 25, 2025 • Age: 11 hours

当前状态

高度 1414.2 km
速度 7.15 km/s
星下点 0.18°N, 80.93°E
发射日期 Feb 6, 2013
运行时间 12.7 years
类型 communications

技术详情

分类 Payload
质量 715.00 kg
干质量 500.00 kg
总质量 715.00 kg
长度 4.00 m
直径 2.00 m
跨度 12.00 m
形状 Trap Cyl + 2 Pan
制造商 THALR
平台类型 Prisma
阶段状态 In Orbit
所有者/国家 GLOBL/US

大型星座

Loading constellations...